This is the latest recevied weather packets stored in our database for station/object K0QJ. If no packets are shown the sender has not sent any weather packets the latest 10 day(s).
| Time | Temp. | Humidity | Pressure | Rain* | Wind** | Luminosity | Snow |
|---|---|---|---|---|---|---|---|
| 1777428510 | 13.89° C | 71% | 1014.8 hPa | 0 mm | - | 0 W/m² | - |
| 1777428206 | 13.89° C | 72% | 1014.9 hPa | 0 mm | - | 0 W/m² | - |
| 1777427901 | 13.33° C | 74% | 1014.7 hPa | 0 mm | - | 0 W/m² | - |
| 1777427598 | 13.33° C | 76% | 1014.5 hPa | 0 mm | - | 0 W/m² | - |
| 1777427295 | 13.33° C | 75% | 1014.4 hPa | 0 mm | - | 0 W/m² | - |
| 1777426992 | 13.33° C | 75% | 1014.5 hPa | 0 mm | - | 0 W/m² | - |
| 1777426689 | 13.89° C | 74% | 1014.2 hPa | 0 mm | - | 0 W/m² | - |
| 1777426385 | 13.89° C | 74% | 1013.8 hPa | 0 mm | - | 0 W/m² | - |
| 1777426081 | 13.89° C | 73% | 1014 hPa | 0 mm | - | 0 W/m² | - |
| 1777425777 | 14.44° C | 72% | 1013.9 hPa | 0 mm | - | 0 W/m² | - |
| 1777425471 | 14.44° C | 71% | 1013.9 hPa | 0 mm | - | 0 W/m² | - |
| 1777425167 | 14.44° C | 71% | 1013.7 hPa | 0 mm | - | 0 W/m² | - |
| 1777424864 | 14.44° C | 70% | 1013.6 hPa | 0 mm | - | 1 W/m² | - |
| 1777424560 | 14.44° C | 70% | 1013.5 hPa | 0 mm | - | 2 W/m² | - |
| 1777424255 | 15° C | 70% | 1013.7 hPa | 0 mm | - | 4 W/m² | - |
| 1777423952 | 15° C | 71% | 1013.4 hPa | 0 mm | - | 5 W/m² | - |
| 1777423648 | 15° C | 71% | 1013.2 hPa | 0 mm | - | 7 W/m² | - |
| 1777423344 | 15° C | 70% | 1013.1 hPa | 0 mm | - | 10 W/m² | - |
| 1777423040 | 15° C | 69% | 1013.1 hPa | 0 mm | - | 12 W/m² | - |
| 1777422736 | 15° C | 69% | 1013.2 hPa | 0 mm | - | 16 W/m² | - |
| 1777422435 | 15° C | 69% | 1013.1 hPa | 0 mm | - | 17 W/m² | - |
| 1777422131 | 15° C | 68% | 1012.9 hPa | 0 mm | - | 26 W/m² | - |
| 1777421830 | 15.56° C | 68% | 1012.8 hPa | 0 mm | - | 26 W/m² | - |
| 1777421526 | 15.56° C | 70% | 1012.8 hPa | 0 mm | - | 35 W/m² | - |
| 1777421222 | 15° C | 71% | 1012.8 hPa | 0 mm | - | 44 W/m² | - |
* Rain latest hour (hover to see other rain measurements)
** Current wind speed in m/s (hover to see current wind gust speed)